[ hide orbit diagram ]
For accurate long-term ephemerides, please instead use our Horizons system.This orbit viewer was implemented using two-body methods, and hence should not be used for determining accurate long-term trajectories (over several years or decades) or planetary encounter circumstances.
Orbital Elements at Epoch 2459200.5 (2020-Dec-17.0) TDB
Reference: JPL 43 (heliocentric ecliptic J2000)
Element | Value | Uncertainty (1-sigma) | Units |
e | .1884720815655149 | 3.5864e-08 | |
a | 3.081827361046275 | 1.2855e-08 | au |
q | 2.500988943284326 | 1.141e-07 | au |
i | .05333297804658358 | 3.8016e-06 | deg |
node | 193.5046600792539 | 0.003592 | deg |
peri | 164.4183934197299 | 0.003592 | deg |
M | 337.5092296995458 | 1.0595e-05 | deg |
tp | 2459323.956146249952 (2021-Apr-19.45614625) | 5.8611e-05 | TDB |
period | 1976.108957419083 5.41 | 1.2364e-05 3.385e-08 | d yr |
n | .1821761895508948 | 1.1398e-09 | deg/d |
Q | 3.662665778808225 | 1.5278e-08 | au |
|
| | Orbit Determination Parameters
Additional Information
|
[ show covariance matrix ]
Physical Parameter Table
Parameter |
Symbol |
Value |
Units |
Sigma |
Reference |
Notes |
absolute magnitude |
H |
12.13 |
|
n/a |
E2021B10 |
|
diameter |
diameter |
23.399 |
km |
0.039 |
urn:nasa:pds:neowise_diameters_albedos::2.0[mainbelt] (http://adsabs.harvard.edu/abs/2014ApJ...791..121M) |
|
rotation period |
rot_per |
5. |
h |
n/a |
LCDB (Rev. 2020-October); Warner et al., 2009 |
lower-limit; Incomplete or inconclusive result. Published Reference List: [Brinsfield, J.W. (2011) Minor Planet Bull. 38, 154-155.] |
geometric albedo |
albedo |
0.076 |
|
0.007 |
urn:nasa:pds:neowise_diameters_albedos::2.0[mainbelt] (http://adsabs.harvard.edu/abs/2014ApJ...791..121M) |
|
|
1383 Limburgia (1934 RV) Discovered 1934-Sep-09 by Van Gent, H. at Johannesburg (LS) |
Reference: DISCOVERY.DB | Last Updated: 2003-08-29 |
|
[ hide close-approach data ]
Close-Approach Data ...sorted by Date/Time (TDB)
|
Date/Time (TDB) |
Time Uncertainty (days_HH:MM) |
Body |
Nominal Distance (au) |
Minimum Distance (au) |
Maximum Distance (au) |
V-relative (km/s) |
V-infinity (km/s) |
JD (TDB) |
Time Uncertainty (minutes) |
Semi-major axis (km) |
Semi-minor axis (km) |
range-LOV angle (deg) |
N-sigma |
BP |
Orbit Ref. |
Reference |
Modified |
1910-Dec-01 07:06 |
00:02 |
Jupiter |
1.92290712462328 |
1.9229064400093 |
1.92290780923727 |
2.14297058515512 |
1.92648429291742 |
2419006.796064402 |
1.94605243482636 |
72.5225057930853 |
4.6505859534275 |
89.7109505224758 |
2210480.6397813 |
T |
43 |
CATAB v2.0f-lin.ifort 2021-Apr-12 12:22:46 |
2021-Apr-12 12:22 |
1920-Sep-13 17:54 |
00:02 |
Jupiter |
1.81226465807115 |
1.81226420900229 |
1.81226510714094 |
1.83910296920051 |
1.56445927658452 |
2422581.245543962 |
1.74730434899662 |
111.778408266154 |
20.165463555976 |
-74.9862590402621 |
3093974.93782016 |
T |
43 |
CATAB v2.0f-lin.ifort 2021-Apr-12 12:22:46 |
2021-Apr-12 12:22 |
1970-Sep-09 03:15 |
< 00:01 |
Jupiter |
1.98887365148974 |
1.98887320814275 |
1.98887409483661 |
2.47293752310427 |
2.29426654666517 |
2440838.635275648 |
0.818063741164526 |
43.0450199692333 |
7.55221690142901 |
-86.4344662028943 |
2909692.27657592 |
T |
43 |
CATAB v2.0f-lin.ifort 2021-Apr-12 12:22:46 |
2021-Apr-12 12:22 |
1980-Jun-24 16:56 |
< 00:01 |
Jupiter |
1.79385486449713 |
1.79385452580399 |
1.79385520319026 |
1.69711560879857 |
1.39134512414669 |
2444415.205515706 |
0.617951194731628 |
73.5653914869767 |
30.9983356391341 |
-71.9165429410372 |
3030274.505706 |
T |
43 |
CATAB v2.0f-lin.ifort 2021-Apr-12 12:22:46 |
2021-Apr-12 12:22 |
2040-Apr-03 18:02 |
< 00:01 |
Jupiter |
1.79480701291969 |
1.79480667373143 |
1.79480735210775 |
1.6530071811933 |
1.3373756356106 |
2466248.251284334 |
0.552270740038965 |
67.840621723262 |
38.7002280025612 |
-78.4921831304902 |
2730859.90102255 |
T |
43 |
CATAB v2.0f-lin.ifort 2021-Apr-12 12:22:46 |
2021-Apr-12 12:22 |
2050-Jan-15 16:55 |
< 00:01 |
Jupiter |
1.98855461168341 |
1.98855424330638 |
1.98855498006044 |
2.89470464777927 |
2.74361391908146 |
2469822.204717781 |
0.760911772385738 |
36.4665669671872 |
10.2357565844858 |
87.1396549318483 |
3459433.47403124 |
T |
43 |
CATAB v2.0f-lin.ifort 2021-Apr-12 12:22:46 |
2021-Apr-12 12:22 |
2100-Jan-12 16:05 |
00:02 |
Jupiter |
1.81470416942895 |
1.81470374653251 |
1.81470459232508 |
1.7050225081649 |
1.40484570669031 |
2488081.170276207 |
1.67204364210846 |
86.04051883253 |
36.9936239391813 |
83.3242428617731 |
2281704.16611981 |
T |
43 |
CATAB v2.0f-lin.ifort 2021-Apr-12 12:22:46 |
2021-Apr-12 12:22 |
2109-Oct-25 08:51 |
00:02 |
Jupiter |
1.92722119265025 |
1.9272206038944 |
1.9272217814061 |
2.47386004007129 |
2.28931744602983 |
2491653.868792903 |
1.88756192853609 |
58.1995360255774 |
5.47359604692684 |
86.4756511839566 |
2517378.71255288 |
T |
43 |
CATAB v2.0f-lin.ifort 2021-Apr-12 12:22:46 |
2021-Apr-12 12:22 |
2159-Oct-23 22:31 |
00:03 |
Jupiter |
1.8518413151138 |
1.85184061976911 |
1.8518420104587 |
1.8515169117408 |
1.58534707790984 |
2509914.438331190 |
2.79945663938945 |
104.427003817387 |
24.7708025464161 |
76.5805376754806 |
1967127.28686053 |
T |
43 |
CATAB v2.0f-lin.ifort 2021-Apr-12 12:22:46 |
2021-Apr-12 12:22 |
2169-Aug-04 22:46 |
00:03 |
Jupiter |
1.8736761759134 |
1.8736754330168 |
1.87367691881191 |
2.12980682019224 |
1.90576705344052 |
2513487.448519226 |
3.03157658424553 |
128.007261165003 |
7.53335992504165 |
-84.2199686790394 |
2977860.00733699 |
T |
43 |
CATAB v2.0f-lin.ifort 2021-Apr-12 12:22:46 |
2021-Apr-12 12:22 |
|
Alternate Designations
1934 RV = 1929 UQ = 1929 VJ = A923 PA |
|
|